User: anonymous   Login
Location: *
(2.5500°S, 65.9667°W)
Time: 16:57:08
(UTC+00:00)
Language:

H-2A R/B - Orbit

View from above orbital plane
View from above orbital plane
View from above satellite
View from above satellite

Ground track
Ground track

The orbit data is extracted from the following two-line orbital elements,

1 38341U 12025E   22023.83188280  .00000517  00000-0  67342-4 0  9995
2 38341  98.5179 229.3733 0055665 150.5819 209.8547 14.84403725524199
Epoch (UTC): 23 January 2022 19:57:54
Eccentricity: 0.0055665
inclination: 98.5179°
perigee height: 576 km
apogee height: 654 km
right ascension of ascending node: 229.3733°
argument of perigee: 150.5819°
revolutions per day: 14.84403725
mean anomaly at epoch: 209.8547°
orbit number at epoch: 52419

The dashed part of the orbit path shows where the satellite is in the earth's shadow,  

DLR